sat.trackr.live / text

‹ back to catalog

STARLINK-31534

NORAD 59398 · 2024-064A

PAYLOAD ACTIVE UNKNOWN

§ Identity

Operator
Country
US
Launch date
2024-04-05
Launch site
AFETR
Launch vehicle
Mass (kg)
RCS (m²)

Purposes: comms

External: N2YO · Heavens-Above · Gunter

§ Orbital elements

Epoch: 2026-05-24T22:52:51.187008Z

Period
94.27 min
Inclination
43.0045°
Eccentricity
0.0001495
Mean motion
15.27583297 rev/d
Perigee alt
482.0 km
Apogee alt
484.1 km
Semi-major
6,861.2 km
B*
9.9464e-5
RAAN
345.1087°
Arg perigee
278.2240°
Mean anomaly
81.8442°
Rev number
12,083

§ Raw data

STARLINK-315341 59398U 24064A   26144.95337022  .00002476  00000+0  99464-4 0  99922 59398  43.0045 345.1087 0001495 278.2240  81.8442 15.27583297120834

JSON: /api/v1/satellites/59398 · /tle

For live sub-satellite position, see the globe view (requires WebGL).

§ Visibility from observer

Set your observer location to see the next 7 days of passes ≥ 10°. The values pass through the URL so the page stays shareable.

No JS? Fill the form by hand. The geolocation button needs JavaScript.